2023-077E

Last updated on Fri Jun 02 2023 00:02:04 GMT+0000 (Coordinated Universal Time)

1 56765U 23077E 23151.71002523 .10088861 71004-5 56789-2 0 9996 2 56765 41.2892 256.0794 0143428 126.0454 2.1597 15.99192004119256

Satellite not in orbit